Buffalo, NY

5:31 PM EST on December 07, 2019 (GMT -0500)
Buffalo Niagara International

Weather History for KBUF - October, 2019

Change the Weather History Date:

Friday, October 4, 2019

  Actual Average Record
Temperature  
Mean Temperature 49 °F 55 °F  
Max Temperature 54 °F 64 °F 87 °F (1951)
Min Temperature 43 °F 47 °F 31 °F (1974)
Degree Days  
Heating Degree Days 16 10  
Month to date heating degree days 35 39  
Since 1 July heating degree days 80 201  
Cooling Degree Days 0 0  
Month to date cooling degree days 7 0  
Year to date cooling degree days 604 540  
Moisture  
Dew Point 45 °F    
Average Humidity 83    
Maximum Humidity 100    
Minimum Humidity 66    
Precipitation  
Precipitation 0.02 in 0.12 in 1.15 in (1898)
Month to date precipitation 1.07 0.48  
Year to date precipitation 35.72 29.54  
Snow  
Snow 0.00 in 0.00 in T in (2014)
Month to date snowfall 0.0 0.1  
Since 1 July snowfall 0.0 0.1  
Since 1 September snowfall 0.0 0.1  
Snow Depth 0.00 in    
Sea Level Pressure  
Sea Level Pressure 30.22 in    
Wind  
Wind Speed 8 mph (NNW)    
Max Wind Speed 18 mph    
Max Gust Speed 23 mph    
Visibility 10 miles    
Events Rain    
T = Trace of Precipitation, MM = Missing Value Source: NWS Daily Summary

Daily Weather History Graph

Daily Weather History Graph

Search for Another Location

Airport or City:

Astronomy

Oct. 04, 2019 Rise Set
Actual Time 7:15 AM EDT 6:51 PM EDT
Civil Twilight 6:47 AM EDT 7:19 PM EDT
Nautical Twilight 6:14 AM EDT 7:52 PM EDT
Astronomical Twilight 5:41 AM EDT 8:25 PM EDT
Moon 1:53 PM EDT (10/4) 11:10 PM EDT (10/4)
Length of Visible Light 12h 32m
Length of Day
11h 35m
Waxing Crescent, 39% of the Moon is Illuminated
Oct 4
Waxing Crescent
Oct 5
First Quarter
Oct 13
Full
Oct 21
Last Quarter
Oct 27
New

Hourly Weather History & Observations

Time (EDT) Temp. Windchill Dew Point Humidity Pressure Visibility Wind Dir Wind Speed Gust Speed Precip Events Conditions
12:06 AM 54.0 °F - 52.0 °F 93% 30.00 in 10.0 mi SW 9.2 mph - N/A   Mostly Cloudy
12:54 AM 53.1 °F - 52.0 °F 96% 30.02 in 10.0 mi West 6.9 mph - N/A   Mostly Cloudy
1:01 AM 54.0 °F - 52.0 °F 93% 30.01 in 10.0 mi WSW 6.9 mph - N/A   Mostly Cloudy
1:38 AM 53.1 °F - 52.0 °F 96% 30.02 in 10.0 mi West 9.2 mph - N/A   Mostly Cloudy
1:54 AM 53.1 °F - 52.0 °F 96% 30.04 in 10.0 mi West 8.1 mph - N/A   Overcast
2:10 AM 54.0 °F - 52.0 °F 93% 30.03 in 10.0 mi West 9.2 mph - N/A   Overcast
2:23 AM 54.0 °F - 52.0 °F 93% 30.03 in 10.0 mi West 9.2 mph - N/A   Overcast
2:45 AM 54.0 °F - 53.1 °F 97% 30.04 in 10.0 mi West 8.1 mph - 0.01 in   Overcast
2:54 AM 54.0 °F - 53.1 °F 97% 30.04 in 10.0 mi West 6.9 mph - 0.01 in   Overcast
3:29 AM 54.0 °F - 52.0 °F 93% 30.04 in 10.0 mi West 10.4 mph - 0.01 in Rain Light Rain
3:54 AM 54.0 °F - 52.0 °F 93% 30.06 in 10.0 mi WNW 10.4 mph - 0.01 in   Overcast
4:09 AM 53.1 °F - 52.0 °F 96% 30.06 in 10.0 mi North 15.0 mph 18.4 mph N/A   Overcast
4:18 AM 53.1 °F - 51.1 °F 93% 30.07 in 10.0 mi North 10.4 mph - 0.00 in Rain Light Rain
4:23 AM 53.1 °F - 51.1 °F 93% 30.07 in 10.0 mi NNW 9.2 mph - 0.00 in   Overcast
4:29 AM 52.0 °F - 51.1 °F 97% 30.07 in 10.0 mi North 10.4 mph - 0.00 in   Overcast
4:37 AM 52.0 °F - 51.1 °F 97% 30.07 in 10.0 mi North 10.4 mph - 0.00 in   Overcast
4:54 AM 51.1 °F - 50.0 °F 96% 30.10 in 10.0 mi North 13.8 mph - 0.00 in   Overcast
5:12 AM 50.0 °F - 48.0 °F 93% 30.11 in 10.0 mi North 15.0 mph - N/A   Overcast
5:34 AM 48.9 °F - 46.9 °F 93% 30.13 in 10.0 mi North 12.7 mph - N/A   Overcast
5:54 AM 48.9 °F - 46.0 °F 90% 30.15 in 10.0 mi NNW 10.4 mph - N/A   Overcast
6:54 AM 48.0 °F - 45.0 °F 89% 30.19 in 10.0 mi North 11.5 mph 19.6 mph N/A   Overcast
7:19 AM 46.9 °F - 44.1 °F 90% 30.19 in 10.0 mi North 9.2 mph - N/A   Overcast
7:54 AM 46.9 °F - 43.0 °F 86% 30.22 in 10.0 mi North 8.1 mph - N/A   Overcast
8:36 AM 46.0 °F 41.0 °F 42.1 °F 86% 30.24 in 10.0 mi North 10.4 mph 19.6 mph N/A   Overcast
8:54 AM 46.0 °F 41.9 °F 42.1 °F 86% 30.26 in 10.0 mi North 8.1 mph - N/A   Overcast
9:54 AM 46.0 °F 41.4 °F 39.9 °F 79% 30.29 in 10.0 mi North 9.2 mph - N/A   Overcast
10:54 AM 46.0 °F 41.0 °F 39.0 °F 76% 30.31 in 10.0 mi NNE 10.4 mph - N/A   Mostly Cloudy
11:14 AM 46.9 °F - 39.0 °F 74% 30.30 in 10.0 mi NNE 9.2 mph - N/A   Mostly Cloudy
11:54 AM 48.0 °F - 39.0 °F 71% 30.32 in 10.0 mi North 9.2 mph - N/A   Mostly Cloudy
12:54 PM 46.9 °F - 39.0 °F 74% 30.35 in 10.0 mi NNE 12.7 mph - N/A   Overcast
1:54 PM 48.0 °F - 39.0 °F 71% 30.35 in 10.0 mi NNE 10.4 mph - N/A   Mostly Cloudy
2:54 PM 48.0 °F - 39.0 °F 71% 30.36 in 10.0 mi NNE 10.4 mph - N/A   Mostly Cloudy
3:54 PM 48.9 °F - 37.9 °F 66% 30.36 in 10.0 mi North 8.1 mph - N/A   Mostly Cloudy
4:33 PM 48.2 °F - 37.4 °F 66% 30.36 in 10.0 mi North 6.9 mph - N/A   Overcast
4:54 PM 48.0 °F - 37.9 °F 68% 30.37 in 10.0 mi North 6.9 mph - N/A   Overcast
5:38 PM 48.0 °F - 39.0 °F 71% 30.36 in 10.0 mi North 6.9 mph - N/A   Overcast
5:54 PM 48.0 °F - 37.9 °F 68% 30.37 in 10.0 mi North 6.9 mph - N/A   Mostly Cloudy
6:21 PM 46.4 °F 43.5 °F 37.4 °F 71% 30.36 in 10.0 mi North 5.8 mph - N/A   Mostly Cloudy
6:54 PM 46.9 °F - 37.0 °F 68% 30.39 in 10.0 mi NE 8.1 mph - N/A   Mostly Cloudy
7:54 PM 45.0 °F 43.5 °F 37.9 °F 76% 30.40 in 10.0 mi NNE 3.5 mph - N/A   Scattered Clouds
8:54 PM 44.1 °F 42.5 °F 39.0 °F 82% 30.41 in 10.0 mi ENE 3.5 mph - N/A   Partly Cloudy
9:54 PM 45.0 °F - 39.0 °F 80% 30.43 in 10.0 mi Calm Calm - N/A   Mostly Cloudy
10:54 PM 45.0 °F 41.8 °F 39.0 °F 80% 30.43 in 10.0 mi SE 5.8 mph - N/A   Mostly Cloudy
11:54 PM 44.1 °F - 39.9 °F 85% 30.43 in 10.0 mi Calm Calm - N/A   Mostly Cloudy